Flag for South Korea Weather past 2 weeks in Seoul, South Korea

Now
27 °F

Passing clouds.


Feels Like: 27 °F
Forecast: 20 / 31 °F
Wind: 1 mph from Southwest

Location: Seoul / Kimp'O International Airport

Current Time: Jan 30, 2015 at 7:43:40 AM

Latest Report: Jan 30, 2015 at 7:00 AM


Visibility: N/A

Pressure: 30.24 "Hg

Humidity: 54%

Dew point: 12 °F

Location of SeoulLocation

Historic Weather in Seoul — Graph

°F

Seoul temperature yesterday

Maximum temperature yesterday: 34 °F (at 1:00 PM)
Minimum temperature yesterday: 19 °F (at 1:00 AM)
Average temperature yesterday: 27 °F

Past Weeks' High & Low Weather Summary

 TemperatureHumidityPressure
High46 °F (Jan 15, 3:00 PM)87% (Jan 16, 4:00 AM)30.45 "Hg (Jan 16, 4:00 AM)
Low16 °F (Jan 18, 2:00 AM)23% (Jan 17, 2:00 PM)30.01 "Hg (Jan 18, 6:55 PM)
Average31 °F58%30.24 "Hg
* Reported Jan 15 6:00 AM — Jan 30 6:00 AM, Seoul, Weather by CustomWeather, © 2014

Note: Actual official high and low records may vary slightly from our data, if they occured in-between our weather recording intervals... More about our weather records

Advertising

Seoul weather history for previous 24 hours

 ConditionsComfort  
Time TempWeatherWind HumidityBarometerVisibility
6:00 AM
Jan 30
25 °FPassing clouds.1 mph54%30.24 "HgN/A
5:00 AM23 °FPassing clouds.2 mph58%30.24 "HgN/A
4:00 AM21 °FClear.2 mph58%30.27 "Hg10 mi
3:00 AM25 °FClear.2 mph54%30.27 "Hg10 mi
2:00 AM23 °FClear.5 mph54%30.27 "Hg10 mi
1:00 AM25 °FPassing clouds.3 mph46%30.27 "HgN/A
12:00 AM27 °FPassing clouds.7 mph46%30.27 "HgN/A
11:00 PM
Jan 29
28 °FOvercast.8 mph43%30.30 "HgN/A
10:00 PM27 °FOvercast.5 mph50%30.27 "HgN/A
9:00 PM28 °FPassing clouds.No wind47%30.27 "HgN/A
8:00 PM28 °FPassing clouds.6 mph47%30.27 "HgN/A
7:00 PM30 °FPassing clouds.7 mph51%30.27 "HgN/A
6:00 PM32 °FPassing clouds.5 mph51%30.27 "HgN/A
5:00 PM34 °FPartly sunny.7 mph44%30.27 "HgN/A
4:00 PM34 °FPartly sunny.10 mph44%30.27 "Hg6 mi
3:00 PM32 °FPartly sunny.10 mph44%30.27 "Hg6 mi
2:00 PM34 °FPartly sunny.8 mph44%30.30 "Hg6 mi
1:00 PM34 °FClear.5 mph44%30.30 "Hg6 mi
12:00 PM30 °FClear.1 mph51%30.33 "Hg6 mi
11:00 AM28 °FSunny.2 mph55%30.36 "Hg10 mi
10:00 AM27 °FPartly sunny.8 mph64%30.36 "HgN/A
9:00 AM25 °FPartly sunny.3 mph63%30.36 "HgN/A
8:00 AM23 °FPartly sunny.5 mph63%30.36 "HgN/A
7:00 AM23 °FClear.3 mph68%30.36 "Hg10 mi
Weather by CustomWeather, © 2014

See weather overviewHow to use our weather pages